TimeEST,TemperatureF,Dew PointF,Humidity,Sea Level PressureIn,VisibilityMPH,Wind Direction,Wind SpeedMPH,Gust SpeedMPH,PrecipitationIn,Events,Conditions,WindDirDegrees,DateUTC
12:57 AM,45.0,24.1,44,30.10,10.0,West,8.1,-,N/A,,Clear,260,2013-02-01 05:57:00
1:57 AM,45.0,24.1,44,30.10,10.0,West,10.4,-,N/A,,Clear,270,2013-02-01 06:57:00
2:57 AM,44.1,24.1,45,30.08,10.0,West,5.8,-,N/A,,Clear,260,2013-02-01 07:57:00
3:57 AM,44.1,24.1,45,30.07,10.0,WSW,8.1,-,N/A,,Clear,250,2013-02-01 08:57:00
4:57 AM,44.1,27.0,51,30.06,10.0,WSW,8.1,-,N/A,,Clear,240,2013-02-01 09:57:00
5:57 AM,44.1,27.0,51,30.05,10.0,WSW,12.7,18.4,N/A,,Clear,240,2013-02-01 10:57:00
6:57 AM,46.0,28.0,50,30.04,10.0,WSW,15.0,24.2,N/A,,Clear,240,2013-02-01 11:57:00
7:57 AM,46.9,28.0,48,30.04,10.0,WSW,12.7,23.0,N/A,,Scattered Clouds,240,2013-02-01 12:57:00
8:57 AM,50.0,25.0,38,30.06,10.0,WSW,12.7,25.3,N/A,,Scattered Clouds,250,2013-02-01 13:57:00
9:57 AM,52.0,26.1,37,30.07,10.0,West,12.7,32.2,N/A,,Scattered Clouds,280,2013-02-01 14:57:00
10:57 AM,53.1,27.0,37,30.10,10.0,WNW,12.7,26.5,N/A,,Mostly Cloudy,290,2013-02-01 15:57:00
11:57 AM,48.0,27.0,44,30.14,10.0,NNW,16.1,31.1,N/A,,Scattered Clouds,330,2013-02-01 16:57:00
12:57 PM,48.0,17.1,29,30.16,10.0,WNW,20.7,34.5,N/A,,Mostly Cloudy,300,2013-02-01 17:57:00
1:57 PM,46.9,1.9,16,30.18,9.0,WNW,23.0,35.7,N/A,,Partly Cloudy,300,2013-02-01 18:57:00
2:57 PM,46.0,3.0,17,30.20,10.0,NW,10.4,20.7,N/A,,Partly Cloudy,320,2013-02-01 19:57:00
3:57 PM,45.0,3.0,18,30.23,10.0,NW,12.7,21.9,N/A,,Clear,320,2013-02-01 20:57:00
4:57 PM,43.0,5.0,21,30.27,10.0,NW,12.7,19.6,N/A,,Clear,310,2013-02-01 21:57:00
5:57 PM,39.0,6.1,26,30.29,10.0,NNW,4.6,-,N/A,,Clear,330,2013-02-01 22:57:00
6:57 PM,35.1,10.9,37,30.33,10.0,Calm,Calm,-,N/A,,Clear,0,2013-02-01 23:57:00
7:57 PM,33.1,10.9,40,30.36,10.0,Calm,Calm,-,N/A,,Clear,0,2013-02-02 00:57:00
8:57 PM,30.9,8.1,38,30.38,10.0,Calm,Calm,-,N/A,,Clear,0,2013-02-02 01:57:00
9:57 PM,27.0,12.0,53,30.40,10.0,NNW,4.6,-,N/A,,Clear,330,2013-02-02 02:57:00
10:57 PM,28.9,9.0,43,30.41,10.0,Calm,Calm,-,N/A,,Clear,0,2013-02-02 03:57:00
11:57 PM,28.9,9.0,43,30.41,10.0,North,5.8,-,N/A,,Clear,350,2013-02-02 04:57:00